Flag for U.S.A. Weather past 2 weeks in Bellingham, Washington, U.S.A.

Now
56 °F

Overcast.


Feels Like: 56 °F
Forecast: 51 / 67 °F
Wind: No wind

Location: Bellingham International Airport

Current Time: May 26, 2015 at 5:35:13 AM

Latest Report: May 26, 2015 at 4:53 AM


Visibility: 10 mi

Pressure: 30.04 "Hg

Humidity: 90%

Dew point: 53 °F

Location of BellinghamLocation

Historic Weather in Bellingham — Graph

°F

Bellingham temperature yesterday

Maximum temperature yesterday: 61 °F (at 4:53 PM)
Minimum temperature yesterday: 52 °F (at 6:53 AM)
Average temperature yesterday: 56 °F

Past Weeks' High & Low Weather Summary

 TemperatureHumidityPressure
High73 °F (May 18, 3:53 PM)97% (May 12, 4:53 AM)30.19 "Hg (May 12, 4:53 AM)
Low46 °F (May 12, 5:53 AM)49% (May 20, 4:53 PM)29.81 "Hg (May 12, 6:53 PM)
Average57 °F80%29.98 "Hg
* Reported May 11 3:53 AM — May 26 3:53 AM, Bellingham, Weather by CustomWeather, © 2015

Note: Actual official high and low records may vary slightly from our data, if they occured in-between our weather recording intervals... More about our weather records

Advertising

Bellingham weather history for previous 24 hours

 ConditionsComfort  
Time TempWeatherWind HumidityBarometerVisibility
3:53 AM
Tue, May 26
56 °FOvercast.5 mph87%30.03 "Hg10 mi
2:53 AM56 °FOvercast.No wind87%30.04 "Hg10 mi
1:53 AM56 °FMostly cloudy.3 mph90%30.04 "Hg10 mi
12:53 AM55 °FOvercast.No wind93%30.03 "Hg10 mi
11:53 PM
Mon, May 25
55 °FMostly cloudy.No wind90%30.03 "Hg10 mi
10:53 PM57 °FOvercast.No wind87%30.03 "Hg10 mi
9:53 PM58 °FOvercast.No wind84%30.02 "Hg10 mi
8:53 PM58 °FOvercast.No wind81%30.01 "Hg10 mi
7:53 PM59 °FOvercast.No wind78%30.01 "Hg10 mi
6:53 PM61 °FScattered clouds.7 mph70%30.01 "Hg10 mi
5:53 PM60 °FScattered clouds.6 mph72%30.01 "Hg10 mi
4:53 PM61 °FOvercast.7 mph70%30.02 "Hg10 mi
3:53 PM60 °FMore clouds than sun.9 mph72%30.02 "Hg10 mi
2:53 PM60 °FPartly sunny.8 mph75%30.03 "Hg10 mi
2:00 PM59 °FOvercast.12 mph77%30.01 "Hg10 mi
1:00 PM55 °FMostly cloudy.9 mph88%30.01 "Hg10 mi
11:53 AM53 °FFog.6 mph96%30.03 "Hg5 mi
10:53 AM52 °FLow clouds.7 mph97%30.02 "Hg10 mi
9:53 AM52 °FLow clouds.8 mph97%30.01 "Hg10 mi
8:53 AM52 °FLow clouds.8 mph93%30.01 "Hg10 mi
7:53 AM52 °FLow clouds.7 mph93%30.00 "Hg10 mi
6:53 AM52 °FLow clouds.8 mph93%30.00 "Hg10 mi
5:53 AM53 °FLow clouds.10 mph89%29.99 "Hg10 mi
Weather by CustomWeather, © 2015

See weather overviewHow to use our weather pages